TimeEST,TemperatureF,Dew PointF,Humidity,Sea Level PressureIn,VisibilityMPH,Wind Direction,Wind SpeedMPH,Gust SpeedMPH,PrecipitationIn,Events,Conditions,WindDirDegrees,DateUTC
12:53 AM,59.0,48.9,69,30.04,10.0,WNW,10.4,-,N/A,,Clear,290,2014-03-08 05:53:00
1:33 AM,59.0,50.0,72,30.03,10.0,WNW,6.9,-,N/A,,Mostly Cloudy,300,2014-03-08 06:33:00
1:53 AM,60.1,50.0,69,30.03,10.0,WNW,8.1,-,N/A,,Overcast,300,2014-03-08 06:53:00
2:53 AM,60.1,50.0,69,30.03,10.0,NNW,8.1,-,N/A,,Overcast,330,2014-03-08 07:53:00
3:53 AM,59.0,50.0,72,30.04,10.0,NNW,10.4,-,N/A,,Overcast,340,2014-03-08 08:53:00
4:53 AM,57.9,48.9,72,30.05,10.0,NNW,8.1,-,N/A,,Overcast,330,2014-03-08 09:53:00
5:53 AM,57.0,48.0,72,30.06,10.0,North,8.1,-,N/A,,Overcast,10,2014-03-08 10:53:00
6:53 AM,55.9,48.0,75,30.10,10.0,NNW,3.5,-,N/A,,Overcast,340,2014-03-08 11:53:00
7:53 AM,57.0,48.0,72,30.12,10.0,WNW,5.8,-,N/A,,Overcast,290,2014-03-08 12:53:00
8:53 AM,57.9,48.9,72,30.14,10.0,WNW,4.6,-,N/A,,Mostly Cloudy,300,2014-03-08 13:53:00
9:53 AM,62.1,48.9,62,30.15,10.0,NNE,3.5,-,N/A,,Partly Cloudy,30,2014-03-08 14:53:00
10:53 AM,64.0,48.9,58,30.14,10.0,Variable,3.5,-,N/A,,Clear,0,2014-03-08 15:53:00
11:53 AM,69.1,52.0,54,30.13,10.0,Variable,4.6,-,N/A,,Clear,0,2014-03-08 16:53:00
12:53 PM,70.0,53.1,55,30.10,10.0,NE,8.1,-,N/A,,Clear,40,2014-03-08 17:53:00
1:53 PM,72.0,53.1,51,30.09,10.0,ENE,10.4,-,N/A,,Clear,70,2014-03-08 18:53:00
2:53 PM,72.0,54.0,53,30.07,10.0,East,9.2,-,N/A,,Clear,80,2014-03-08 19:53:00
3:53 PM,73.0,54.0,51,30.06,10.0,ENE,10.4,-,N/A,,Clear,70,2014-03-08 20:53:00
4:53 PM,71.1,57.0,61,30.08,10.0,ENE,12.7,-,N/A,,Clear,60,2014-03-08 21:53:00
5:53 PM,69.1,57.9,68,30.09,10.0,ENE,8.1,-,N/A,,Clear,60,2014-03-08 22:53:00
6:53 PM,68.0,59.0,73,30.10,10.0,NE,6.9,-,N/A,,Partly Cloudy,50,2014-03-08 23:53:00
7:53 PM,66.9,59.0,76,30.13,10.0,NE,4.6,-,N/A,,Clear,50,2014-03-09 00:53:00
8:53 PM,66.9,59.0,76,30.13,10.0,Calm,Calm,-,N/A,,Clear,0,2014-03-09 01:53:00
9:53 PM,64.0,57.9,80,30.14,10.0,NNW,3.5,-,N/A,,Clear,330,2014-03-09 02:53:00
10:53 PM,64.0,59.0,84,30.15,10.0,NNW,4.6,-,N/A,,Clear,330,2014-03-09 03:53:00
11:53 PM,63.0,59.0,87,30.14,10.0,NNW,3.5,-,N/A,,Clear,340,2014-03-09 04:53:00